| time (UTC) | temp C | wind direction | speed KPH | gust KPH | rain 1hr cm | rain 24hr cm | rain mn cm | humidity % | barometer mb |
| 20260509233505 | 21 | 148 | 3.2 | 11.3 | 0.00 | 0.00 | 0.00 | 23 | 1016.7 |
| 20260509232504 | 21 | 249 | 3.2 | 9.7 | 0.00 | 0.00 | 0.00 | 21 | 1016.7 |
| 20260509232004 | 21 | 178 | 3.2 | 8.0 | 0.00 | 0.00 | 0.00 | 24 | 1016.7 |
| 20260509231505 | 21 | 155 | 3.2 | 16.1 | 0.00 | 0.00 | 0.00 | 23 | 1016.8 |
| 20260509231007 | 21 | 113 | 4.8 | 16.1 | 0.00 | 0.00 | 0.00 | 24 | 1016.8 |
| 20260509230506 | 21 | 186 | 3.2 | 12.9 | 0.00 | 0.00 | 0.00 | 22 | 1016.9 |
| 20260509230005 | 21 | 320 | 3.2 | 11.3 | 0.00 | 0.00 | 0.00 | 23 | 1017.1 |
| 20260509225510 | 21 | 155 | 3.2 | 8.0 | 0.00 | 0.00 | 0.00 | 23 | 1017.1 |
| 20260509225005 | 21 | 117 | 3.2 | 9.7 | 0.00 | 0.00 | 0.00 | 22 | 1017.2 |
| 20260509224504 | 22 | 182 | 3.2 | 11.3 | 0.00 | 0.00 | 0.00 | 21 | 1017.3 |
| 20260509224003 | 21 | 325 | 3.2 | 11.3 | 0.00 | 0.00 | 0.00 | 24 | 1017.2 |
| 20260509223503 | 21 | 329 | 3.2 | 11.3 | 0.00 | 0.00 | 0.00 | 23 | 1017.3 |
| 20260509223003 | 20 | 98 | 3.2 | 11.3 | 0.00 | 0.00 | 0.00 | 24 | 1017.2 |
| 20260509222503 | 20 | 134 | 3.2 | 11.3 | 0.00 | 0.00 | 0.00 | 25 | 1017.3 |
| 20260509222004 | 20 | 215 | 4.8 | 11.3 | 0.00 | 0.00 | 0.00 | 25 | 1017.3 |
| 20260509221502 | 20 | 225 | 3.2 | 11.3 | 0.00 | 0.00 | 0.00 | 25 | 1017.3 |
| 20260509221003 | 20 | 290 | 4.8 | 11.3 | 0.00 | 0.00 | 0.00 | 24 | 1017.4 |
| 20260509220503 | 20 | 151 | 4.8 | 11.3 | 0.00 | 0.00 | 0.00 | 23 | 1017.4 |
| 20260509220003 | 20 | 196 | 4.8 | 11.3 | 0.00 | 0.00 | 0.00 | 25 | 1017.4 |
| 20260509215505 | 20 | 168 | 4.8 | 17.7 | 0.00 | 0.00 | 0.00 | 24 | 1017.4 |
| 20260509214504 | 20 | 133 | 4.8 | 8.0 | 0.00 | 0.00 | 0.00 | 24 | 1017.4 |
| 20260509214003 | 20 | 213 | 4.8 | 8.0 | 0.00 | 0.00 | 0.00 | 25 | 1017.4 |
| 20260509213503 | 21 | 151 | 3.2 | 8.0 | 0.00 | 0.00 | 0.00 | 25 | 1017.5 |
| 20260509213004 | 20 | 126 | 3.2 | 12.9 | 0.00 | 0.00 | 0.00 | 26 | 1017.5 |
| 20260509212002 | 20 | 208 | 6.4 | 17.7 | 0.00 | 0.00 | 0.00 | 23 | 1017.5 |
| 20260509211502 | 20 | 122 | 4.8 | 16.1 | 0.00 | 0.00 | 0.00 | 25 | 1017.6 |
| 20260509211002 | 20 | 107 | 4.8 | 11.3 | 0.00 | 0.00 | 0.00 | 26 | 1017.6 |
| 20260509210503 | 19 | 135 | 4.8 | 11.3 | 0.00 | 0.00 | 0.00 | 25 | 1017.7 |
| 20260509210003 | 19 | 133 | 3.2 | 9.7 | 0.00 | 0.00 | 0.00 | 27 | 1017.7 |
| 20260509205503 | 19 | 116 | 3.2 | 9.7 | 0.00 | 0.00 | 0.00 | 27 | 1017.8 |
| 20260509205002 | 19 | 105 | 4.8 | 8.0 | 0.00 | 0.00 | 0.00 | 26 | 1017.8 |
| 20260509204458 | 20 | 167 | 4.8 | 12.9 | 0.00 | 0.00 | 0.00 | 26 | 1017.8 |
| 20260509203953 | 19 | 244 | 4.8 | 12.9 | 0.00 | 0.00 | 0.00 | 27 | 1017.8 |
| 20260509203445 | 20 | 183 | 3.2 | 11.3 | 0.00 | 0.00 | 0.00 | 27 | 1017.9 |
| 20260509202939 | 20 | 127 | 3.2 | 9.7 | 0.00 | 0.00 | 0.00 | 27 | 1017.9 |
| 20260509202434 | 20 | 109 | 3.2 | 11.3 | 0.00 | 0.00 | 0.00 | 28 | 1017.9 |
| 20260509201434 | 18 | 119 | 3.2 | 8.0 | 0.00 | 0.00 | 0.00 | 27 | 1017.8 |
| 20260509200934 | 18 | 109 | 3.2 | 8.0 | 0.00 | 0.00 | 0.00 | 30 | 1017.8 |
| 20260509200436 | 18 | 150 | 3.2 | 12.9 | 0.00 | 0.00 | 0.00 | 27 | 1017.8 |
| 20260509195935 | 19 | 146 | 4.8 | 12.9 | 0.00 | 0.00 | 0.00 | 25 | 1017.8 |
| 20260509195434 | 18 | 345 | 4.8 | 14.5 | 0.00 | 0.00 | 0.00 | 28 | 1017.8 |
| 20260509194936 | 19 | 134 | 3.2 | 14.5 | 0.00 | 0.00 | 0.00 | 27 | 1017.8 |
| 20260509194434 | 19 | 223 | 3.2 | 6.4 | 0.00 | 0.00 | 0.00 | 26 | 1017.9 |
| 20260509193431 | 18 | 94 | 3.2 | 8.0 | 0.00 | 0.00 | 0.00 | 30 | 1017.9 |
| 20260509192935 | 18 | 60 | 4.8 | 16.1 | 0.00 | 0.00 | 0.00 | 26 | 1017.7 |
| 20260509191933 | 18 | 153 | 3.2 | 8.0 | 0.00 | 0.00 | 0.00 | 29 | 1018.0 |
| 20260509191434 | 18 | 203 | 4.8 | 14.5 | 0.00 | 0.00 | 0.00 | 27 | 1018.1 |
| 20260509190431 | 18 | 136 | 6.4 | 14.5 | 0.00 | 0.00 | 0.00 | 27 | 1018.1 |
| 20260509185933 | 17 | 132 | 4.8 | 14.5 | 0.00 | 0.00 | 0.00 | 30 | 1018.1 |
| 20260509185431 | 17 | 119 | 4.8 | 14.5 | 0.00 | 0.00 | 0.00 | 30 | 1018.0 |
| 20260509184933 | 17 | 9 | 4.8 | 8.0 | 0.00 | 0.00 | 0.00 | 29 | 1018.0 |
| 20260509184431 | 16 | 128 | 6.4 | 11.3 | 0.00 | 0.00 | 0.00 | 30 | 1018.3 |
| 20260509183933 | 16 | 128 | 6.4 | 11.3 | 0.00 | 0.00 | 0.00 | 30 | 1018.1 |
| 20260509182936 | 17 | 159 | 4.8 | 12.9 | 0.00 | 0.00 | 0.00 | 29 | 1018.3 |
| 20260509182433 | 16 | 114 | 4.8 | 12.9 | 0.00 | 0.00 | 0.00 | 30 | 1018.4 |
| 20260509181934 | 17 | 119 | 4.8 | 12.9 | 0.00 | 0.00 | 0.00 | 28 | 1018.4 |
| 20260509180936 | 16 | 136 | 4.8 | 14.5 | 0.00 | 0.00 | 0.00 | 29 | 1018.3 |
| 20260509180431 | 16 | 157 | 4.8 | 14.5 | 0.00 | 0.00 | 0.00 | 29 | 1018.5 |
| 20260509175933 | 16 | 206 | 6.4 | 12.9 | 0.00 | 0.00 | 0.00 | 30 | 1018.5 |
| 20260509175432 | 16 | 123 | 4.8 | 11.3 | 0.00 | 0.00 | 0.00 | 31 | 1018.3 |
| 20260509173933 | 16 | 176 | 4.8 | 16.1 | 0.00 | 0.00 | 0.00 | 29 | 1018.5 |
| 20260509173430 | 16 | 201 | 4.8 | 16.1 | 0.00 | 0.00 | 0.00 | 29 | 1018.5 |
| 20260509172932 | 16 | 38 | 3.2 | 9.7 | 0.00 | 0.00 | 0.00 | 31 | 1018.5 |
| 20260509172430 | 16 | 170 | 3.2 | 11.3 | 0.00 | 0.00 | 0.00 | 31 | 1018.4 |
| 20260509171936 | 16 | 205 | 4.8 | 11.3 | 0.00 | 0.00 | 0.00 | 30 | 1018.4 |
| 20260509171430 | 16 | 145 | 4.8 | 14.5 | 0.00 | 0.00 | 0.00 | 31 | 1018.3 |
| 20260509170937 | 16 | 208 | 4.8 | 14.5 | 0.00 | 0.00 | 0.00 | 29 | 1018.3 |
| 20260509170432 | 15 | 125 | 4.8 | 14.5 | 0.00 | 0.00 | 0.00 | 31 | 1018.3 |
| 20260509165932 | 15 | 123 | 6.4 | 14.5 | 0.00 | 0.00 | 0.00 | 33 | 1018.4 |
| 20260509165431 | 15 | 132 | 6.4 | 14.5 | 0.00 | 0.00 | 0.00 | 31 | 1018.4 |
| 20260509164937 | 15 | 140 | 4.8 | 12.9 | 0.00 | 0.00 | 0.00 | 31 | 1018.3 |
| 20260509164431 | 15 | 152 | 6.4 | 9.7 | 0.00 | 0.00 | 0.00 | 35 | 1018.3 |
| 20260509163933 | 15 | 124 | 6.4 | 14.5 | 0.00 | 0.00 | 0.00 | 36 | 1018.4 |
| 20260509163431 | 15 | 128 | 6.4 | 14.5 | 0.00 | 0.00 | 0.00 | 37 | 1018.4 |
| 20260509162933 | 15 | 268 | 6.4 | 12.9 | 0.00 | 0.00 | 0.00 | 33 | 1018.4 |
| 20260509162431 | 15 | 138 | 6.4 | 12.9 | 0.00 | 0.00 | 0.00 | 34 | 1018.4 |
| 20260509161933 | 15 | 109 | 4.8 | 11.3 | 0.00 | 0.00 | 0.00 | 37 | 1018.4 |
| 20260509161429 | 15 | 0 | 4.8 | 11.3 | 0.00 | 0.00 | 0.00 | 37 | 1018.4 |
| 20260509160932 | 14 | 179 | 6.4 | 16.1 | 0.00 | 0.00 | 0.00 | 39 | 1018.4 |
| 20260509160430 | 14 | 165 | 4.8 | 16.1 | 0.00 | 0.00 | 0.00 | 36 | 1018.4 |
| 20260509155931 | 14 | 132 | 4.8 | 12.9 | 0.00 | 0.00 | 0.00 | 36 | 1018.4 |
| 20260509155429 | 14 | 140 | 6.4 | 14.5 | 0.00 | 0.00 | 0.00 | 38 | 1018.3 |
| 20260509154931 | 14 | 150 | 4.8 | 14.5 | 0.00 | 0.00 | 0.00 | 38 | 1018.4 |
| 20260509154429 | 14 | 142 | 4.8 | 8.0 | 0.00 | 0.00 | 0.00 | 38 | 1018.4 |
| 20260509153934 | 14 | 134 | 4.8 | 8.0 | 0.00 | 0.00 | 0.00 | 36 | 1018.4 |
| 20260509153431 | 13 | 158 | 3.2 | 8.0 | 0.00 | 0.00 | 0.00 | 41 | 1018.4 |
| 20260509152934 | 13 | 165 | 3.2 | 6.4 | 0.00 | 0.00 | 0.00 | 42 | 1018.4 |
| 20260509152428 | 13 | 191 | 3.2 | 6.4 | 0.00 | 0.00 | 0.00 | 45 | 1018.4 |
| 20260509151933 | 13 | 181 | 1.6 | 8.0 | 0.00 | 0.00 | 0.00 | 43 | 1018.4 |
| 20260509151429 | 13 | 241 | 1.6 | 8.0 | 0.00 | 0.00 | 0.00 | 43 | 1018.3 |
| 20260509150932 | 13 | 211 | 1.6 | 6.4 | 0.00 | 0.00 | 0.00 | 43 | 1018.3 |
| 20260509150428 | 13 | 207 | 1.6 | 8.0 | 0.00 | 0.00 | 0.00 | 43 | 1018.1 |
| 20260509145428 | 12 | 221 | 4.8 | 11.3 | 0.00 | 0.00 | 0.00 | 43 | 1018.0 |
| 20260509144926 | 12 | 222 | 4.8 | 11.3 | 0.00 | 0.00 | 0.00 | 42 | 1017.9 |
| 20260509144426 | 12 | 208 | 3.2 | 9.7 | 0.00 | 0.00 | 0.00 | 44 | 1018.0 |
| 20260509143926 | 12 | 207 | 3.2 | 6.4 | 0.00 | 0.00 | 0.00 | 46 | 1017.9 |
| 20260509143426 | 12 | 209 | 1.6 | 6.4 | 0.00 | 0.00 | 0.00 | 50 | 1017.8 |
| 20260509142926 | 11 | 0 | 1.6 | 3.2 | 0.00 | 0.00 | 0.00 | 56 | 1017.8 |
| 20260509142425 | 11 | 0 | 1.6 | 3.2 | 0.00 | 0.00 | 0.00 | 58 | 1017.8 |
| 20260509141924 | 11 | 173 | 1.6 | 3.2 | 0.00 | 0.00 | 0.00 | 64 | 1017.8 |
| 20260509140925 | 10 | 0 | 0.0 | 3.2 | 0.00 | 0.00 | 0.00 | 65 | 1017.6 |
| 20260509140422 | 10 | 0 | 0.0 | 1.6 | 0.00 | 0.00 | 0.00 | 65 | 1017.6 |
| 20260509135922 | 10 | 186 | 0.0 | 3.2 | 0.00 | 0.00 | 0.00 | 65 | 1017.6 |
| 20260509135422 | 10 | 0 | 0.0 | 3.2 | 0.00 | 0.00 | 0.00 | 66 | 1017.5 |
| 20260509134422 | 9 | 0 | 0.0 | 1.6 | 0.00 | 0.00 | 0.00 | 69 | 1017.4 |
| 20260509132922 | 8 | 0 | 0.0 | 4.8 | 0.00 | 0.00 | 0.00 | 69 | 1017.2 |
| 20260509132418 | 8 | 0 | 1.6 | 4.8 | 0.00 | 0.00 | 0.00 | 69 | 1017.3 |
| 20260509131918 | 8 | 0 | 0.0 | 3.2 | 0.00 | 0.00 | 0.00 | 69 | 1017.2 |
| 20260509131418 | 8 | 0 | 0.0 | 0.0 | 0.00 | 0.00 | 0.00 | 67 | 1016.9 |
| 20260509130919 | 8 | 0 | 0.0 | 0.0 | 0.00 | 0.00 | 0.00 | 68 | 1017.1 |
| 20260509130417 | 8 | 0 | 0.0 | 1.6 | 0.00 | 0.00 | 0.00 | 67 | 1016.8 |
| 20260509125921 | 9 | 0 | 0.0 | 1.6 | 0.00 | 0.00 | 0.00 | 67 | 1016.7 |
| 20260509125423 | 9 | 0 | 0.0 | 3.2 | 0.00 | 0.00 | 0.00 | 67 | 1016.6 |
| 20260509124921 | 9 | 0 | 0.0 | 3.2 | 0.00 | 0.00 | 0.00 | 68 | 1016.5 |
| 20260509123918 | 9 | 0 | 0.0 | 1.6 | 0.00 | 0.00 | 0.00 | 66 | 1016.4 |
| 20260509123417 | 9 | 0 | 0.0 | 0.0 | 0.00 | 0.00 | 0.00 | 66 | 1016.4 |
| 20260509122919 | 9 | 0 | 0.0 | 0.0 | 0.00 | 0.00 | 0.00 | 67 | 1016.4 |
| 20260509122414 | 9 | 0 | 1.6 | 4.8 | 0.00 | 0.00 | 0.00 | 67 | 1016.3 |
| 20260509121914 | 9 | 0 | 3.2 | 8.0 | 0.00 | 0.00 | 0.00 | 68 | 1016.3 |
| 20260509120413 | 10 | 0 | 3.2 | 4.8 | 0.00 | 0.00 | 0.00 | 64 | 1016.3 |
| 20260509114911 | 10 | 219 | 1.6 | 4.8 | 0.00 | 0.00 | 0.00 | 53 | 1016.1 |
| 20260509113909 | 10 | 217 | 1.6 | 4.8 | 0.00 | 0.00 | 0.00 | 54 | 1016.0 |
| 20260509113409 | 11 | 214 | 0.0 | 3.2 | 0.00 | 0.00 | 0.00 | 55 | 1015.9 |
| 20260509112910 | 11 | 213 | 1.6 | 3.2 | 0.00 | 0.00 | 0.00 | 54 | 1015.9 |
| 20260509112410 | 11 | 213 | 1.6 | 3.2 | 0.00 | 0.00 | 0.00 | 52 | 1015.9 |
| 20260509111909 | 11 | 213 | 3.2 | 6.4 | 0.00 | 0.00 | 0.00 | 48 | 1015.7 |
| 20260509111410 | 11 | 214 | 3.2 | 8.0 | 0.00 | 0.00 | 0.00 | 47 | 1015.7 |
| 20260509110905 | 11 | 215 | 3.2 | 8.0 | 0.00 | 0.00 | 0.00 | 48 | 1015.7 |
| 20260509110405 | 11 | 214 | 3.2 | 6.4 | 0.00 | 0.00 | 0.00 | 48 | 1015.5 |
| 20260509105905 | 11 | 214 | 3.2 | 8.0 | 0.00 | 0.00 | 0.00 | 49 | 1015.5 |
| 20260509105406 | 11 | 211 | 3.2 | 8.0 | 0.00 | 0.00 | 0.00 | 49 | 1015.6 |
| 20260509104404 | 11 | 238 | 3.2 | 6.4 | 0.00 | 0.00 | 0.00 | 50 | 1015.5 |
| 20260509103903 | 11 | 250 | 1.6 | 4.8 | 0.00 | 0.00 | 0.00 | 54 | 1015.5 |
| 20260509103404 | 11 | 250 | 1.6 | 4.8 | 0.00 | 0.00 | 0.00 | 52 | 1015.4 |
| 20260509102905 | 11 | 252 | 0.0 | 4.8 | 0.00 | 0.00 | 0.00 | 52 | 1015.4 |
| 20260509102403 | 11 | 257 | 1.6 | 4.8 | 0.00 | 0.00 | 0.00 | 53 | 1015.4 |
| 20260509101906 | 11 | 257 | 1.6 | 4.8 | 0.00 | 0.00 | 0.00 | 54 | 1015.4 |
| 20260509101406 | 11 | 257 | 1.6 | 4.8 | 0.00 | 0.00 | 0.00 | 54 | 1015.4 |
| 20260509100905 | 11 | 257 | 0.0 | 4.8 | 0.00 | 0.00 | 0.00 | 57 | 1015.4 |
| 20260509100406 | 11 | 261 | 1.6 | 3.2 | 0.00 | 0.00 | 0.00 | 53 | 1015.3 |
| 20260509095903 | 11 | 261 | 1.6 | 3.2 | 0.00 | 0.00 | 0.00 | 54 | 1015.2 |
| 20260509094402 | 11 | 241 | 1.6 | 6.4 | 0.00 | 0.00 | 0.00 | 56 | 1015.1 |
| 20260509093904 | 11 | 244 | 3.2 | 6.4 | 0.00 | 0.00 | 0.00 | 54 | 1015.2 |
| 20260509092903 | 10 | 247 | 0.0 | 3.2 | 0.00 | 0.00 | 0.00 | 59 | 1015.1 |
| 20260509092402 | 10 | 247 | 0.0 | 1.6 | 0.00 | 0.00 | 0.00 | 58 | 1015.0 |
| 20260509091904 | 10 | 247 | 0.0 | 3.2 | 0.00 | 0.00 | 0.00 | 58 | 1015.0 |
| 20260509090906 | 11 | 247 | 1.6 | 4.8 | 0.00 | 0.00 | 0.00 | 58 | 1015.2 |
| 20260509090406 | 11 | 247 | 1.6 | 4.8 | 0.00 | 0.00 | 0.00 | 57 | 1015.0 |
| 20260509085905 | 11 | 248 | 1.6 | 6.4 | 0.00 | 0.00 | 0.00 | 59 | 1015.1 |
| 20260509085406 | 11 | 248 | 4.8 | 6.4 | 0.00 | 0.00 | 0.00 | 56 | 1015.0 |
| 20260509084905 | 11 | 249 | 3.2 | 6.4 | 0.00 | 0.00 | 0.00 | 57 | 1015.0 |
| 20260509084405 | 11 | 218 | 0.0 | 4.8 | 0.00 | 0.00 | 0.00 | 61 | 1014.9 |
| 20260509083904 | 11 | 191 | 0.0 | 0.0 | 0.00 | 0.00 | 0.00 | 62 | 1014.8 |
| 20260509083403 | 11 | 191 | 0.0 | 0.0 | 0.00 | 0.00 | 0.00 | 61 | 1014.8 |
| 20260509082902 | 11 | 191 | 0.0 | 0.0 | 0.00 | 0.00 | 0.00 | 61 | 1014.8 |
| 20260509082403 | 11 | 184 | 0.0 | 0.0 | 0.00 | 0.00 | 0.00 | 62 | 1014.6 |
| 20260509081404 | 11 | 184 | 0.0 | 0.0 | 0.00 | 0.00 | 0.00 | 63 | 1014.5 |
| 20260509080904 | 11 | 184 | 0.0 | 0.0 | 0.00 | 0.00 | 0.00 | 63 | 1014.6 |
| 20260509080403 | 11 | 183 | 0.0 | 0.0 | 0.00 | 0.00 | 0.00 | 61 | 1014.6 |
| 20260509075903 | 11 | 183 | 0.0 | 0.0 | 0.00 | 0.00 | 0.00 | 63 | 1014.6 |
| 20260509074904 | 11 | 183 | 0.0 | 0.0 | 0.00 | 0.00 | 0.00 | 64 | 1014.6 |
| 20260509074403 | 11 | 183 | 0.0 | 0.0 | 0.00 | 0.00 | 0.00 | 64 | 1014.8 |
| 20260509073905 | 11 | 183 | 0.0 | 0.0 | 0.00 | 0.00 | 0.00 | 64 | 1014.8 |
| 20260509073402 | 11 | 184 | 0.0 | 0.0 | 0.00 | 0.00 | 0.00 | 63 | 1014.8 |
| 20260509072903 | 12 | 179 | 0.0 | 0.0 | 0.00 | 0.00 | 0.00 | 64 | 1014.6 |
| 20260509071904 | 12 | 180 | 0.0 | 0.0 | 0.00 | 0.00 | 0.00 | 64 | 1014.6 |
| 20260509071402 | 12 | 183 | 0.0 | 0.0 | 0.00 | 0.00 | 0.00 | 61 | 1014.8 |
| 20260509070402 | 12 | 183 | 0.0 | 0.0 | 0.00 | 0.00 | 0.00 | 62 | 1014.6 |
| 20260509065902 | 12 | 183 | 0.0 | 0.0 | 0.00 | 0.00 | 0.00 | 61 | 1014.5 |
| 20260509065402 | 12 | 183 | 0.0 | 0.0 | 0.00 | 0.00 | 0.00 | 62 | 1014.5 |
| 20260509064904 | 12 | 183 | 0.0 | 0.0 | 0.00 | 0.00 | 0.00 | 61 | 1014.5 |
| 20260509064406 | 12 | 184 | 0.0 | 0.0 | 0.00 | 0.00 | 0.00 | 61 | 1014.4 |
| 20260509063902 | 12 | 184 | 0.0 | 0.0 | 0.00 | 0.00 | 0.00 | 61 | 1014.5 |
| 20260509063402 | 12 | 184 | 0.0 | 0.0 | 0.00 | 0.00 | 0.00 | 60 | 1014.5 |
| 20260509062903 | 12 | 184 | 0.0 | 0.0 | 0.00 | 0.00 | 0.00 | 60 | 1014.4 |
| 20260509062404 | 12 | 184 | 0.0 | 0.0 | 0.00 | 0.00 | 0.00 | 60 | 1014.4 |
| 20260509061908 | 12 | 185 | 0.0 | 0.0 | 0.00 | 0.00 | 0.00 | 59 | 1014.3 |
| 20260509060906 | 12 | 192 | 1.6 | 3.2 | 0.00 | 0.00 | 0.00 | 58 | 1014.2 |
| 20260509055403 | 12 | 194 | 0.0 | 1.6 | 0.00 | 0.00 | 0.00 | 56 | 1014.1 |
| 20260509054902 | 12 | 197 | 0.0 | 1.6 | 0.00 | 0.00 | 0.00 | 58 | 1014.1 |
| 20260509054403 | 12 | 216 | 0.0 | 1.6 | 0.00 | 0.00 | 0.00 | 59 | 1014.1 |
| 20260509053903 | 12 | 192 | 0.0 | 4.8 | 0.00 | 0.00 | 0.00 | 58 | 1014.0 |
| 20260509053403 | 13 | 185 | 0.0 | 4.8 | 0.00 | 0.00 | 0.00 | 56 | 1013.9 |
| 20260509052902 | 13 | 184 | 0.0 | 1.6 | 0.00 | 0.00 | 0.00 | 52 | 1013.9 |
| 20260509052404 | 13 | 184 | 1.6 | 1.6 | 0.00 | 0.00 | 0.00 | 54 | 1013.9 |
| 20260509051903 | 13 | 183 | 1.6 | 3.2 | 0.00 | 0.00 | 0.00 | 54 | 1013.8 |
| 20260509051403 | 13 | 182 | 0.0 | 3.2 | 0.00 | 0.00 | 0.00 | 53 | 1013.8 |
| 20260509050904 | 13 | 182 | 0.0 | 1.6 | 0.00 | 0.00 | 0.00 | 54 | 1013.8 |
| 20260509050403 | 13 | 182 | 0.0 | 1.6 | 0.00 | 0.00 | 0.00 | 54 | 1013.8 |
| 20260509045903 | 13 | 182 | 0.0 | 1.6 | 0.00 | 0.00 | 0.00 | 55 | 1013.7 |
| 20260509045407 | 13 | 181 | 0.0 | 1.6 | 0.00 | 0.00 | 0.00 | 56 | 1013.7 |
| 20260509044905 | 13 | 181 | 0.0 | 3.2 | 0.00 | 0.00 | 0.00 | 55 | 1013.6 |
| 20260509044404 | 13 | 181 | 0.0 | 3.2 | 0.00 | 0.00 | 0.00 | 56 | 1013.7 |
| 20260509043903 | 13 | 182 | 0.0 | 3.2 | 0.00 | 0.00 | 0.00 | 51 | 1013.7 |
| 20260509043403 | 14 | 181 | 0.0 | 1.6 | 0.00 | 0.00 | 0.00 | 51 | 1013.6 |
| 20260509042904 | 14 | 182 | 0.0 | 3.2 | 0.00 | 0.00 | 0.00 | 54 | 1013.7 |
| 20260509042403 | 14 | 182 | 0.0 | 3.2 | 0.00 | 0.00 | 0.00 | 53 | 1013.6 |
| 20260509041403 | 14 | 118 | 1.6 | 6.4 | 0.00 | 0.00 | 0.00 | 56 | 1013.4 |
| 20260509040902 | 14 | 118 | 3.2 | 8.0 | 0.00 | 0.00 | 0.00 | 57 | 1013.4 |
| 20260509040406 | 14 | 101 | 1.6 | 8.0 | 0.00 | 0.00 | 0.00 | 48 | 1013.3 |
| 20260509035402 | 13 | 328 | 1.6 | 3.2 | 0.00 | 0.00 | 0.00 | 51 | 1013.2 |
| 20260509033905 | 14 | 329 | 1.6 | 4.8 | 0.00 | 0.00 | 0.00 | 53 | 1013.1 |
| 20260509033405 | 14 | 329 | 1.6 | 4.8 | 0.00 | 0.00 | 0.00 | 53 | 1012.9 |
| 20260509032904 | 14 | 329 | 1.6 | 4.8 | 0.00 | 0.00 | 0.00 | 55 | 1012.9 |
| 20260509032402 | 14 | 329 | 1.6 | 4.8 | 0.00 | 0.00 | 0.00 | 53 | 1012.8 |
| 20260509031402 | 15 | 317 | 1.6 | 4.8 | 0.00 | 0.00 | 0.00 | 55 | 1012.6 |
| 20260509030856 | 15 | 317 | 1.6 | 4.8 | 0.00 | 0.00 | 0.00 | 53 | 1012.4 |
| 20260509030352 | 15 | 347 | 1.6 | 3.2 | 0.00 | 0.00 | 0.00 | 53 | 1012.2 |
| 20260509025844 | 15 | 347 | 0.0 | 3.2 | 0.00 | 0.00 | 0.00 | 52 | 1012.1 |
| 20260509024336 | 15 | 346 | 1.6 | 6.4 | 0.00 | 0.00 | 0.00 | 52 | 1012.0 |
| 20260509023336 | 16 | 83 | 3.2 | 12.9 | 0.00 | 0.00 | 0.00 | 50 | 1011.9 |
| 20260509022835 | 16 | 329 | 4.8 | 14.5 | 0.00 | 0.00 | 0.00 | 49 | 1011.9 |
| 20260509022335 | 16 | 339 | 3.2 | 14.5 | 0.00 | 0.00 | 0.00 | 44 | 1011.7 |
| 20260509021837 | 16 | 0 | 1.6 | 6.4 | 0.00 | 0.00 | 0.00 | 41 | 1011.7 |
| 20260509021337 | 16 | 0 | 1.6 | 6.4 | 0.00 | 0.00 | 0.00 | 43 | 1011.8 |
| 20260509020836 | 17 | 0 | 1.6 | 6.4 | 0.00 | 0.00 | 0.00 | 41 | 1011.7 |
| 20260509020334 | 17 | 0 | 3.2 | 8.0 | 0.00 | 0.00 | 0.00 | 44 | 1011.6 |
| 20260509015835 | 17 | 0 | 3.2 | 8.0 | 0.00 | 0.00 | 0.00 | 41 | 1011.6 |
| 20260509015335 | 17 | 0 | 3.2 | 8.0 | 0.00 | 0.00 | 0.00 | 43 | 1011.5 |
| 20260509014834 | 17 | 0 | 3.2 | 8.0 | 0.00 | 0.00 | 0.00 | 43 | 1011.5 |
| 20260509014335 | 17 | 0 | 4.8 | 12.9 | 0.00 | 0.00 | 0.00 | 43 | 1011.5 |
| 20260509013833 | 17 | 0 | 3.2 | 12.9 | 0.00 | 0.00 | 0.00 | 43 | 1011.5 |
| 20260509013331 | 18 | 0 | 3.2 | 9.7 | 0.00 | 0.00 | 0.00 | 33 | 1011.4 |
| 20260509012833 | 18 | 0 | 1.6 | 9.7 | 0.00 | 0.00 | 0.00 | 33 | 1011.3 |
| 20260509012330 | 18 | 0 | 1.6 | 6.4 | 0.00 | 0.00 | 0.00 | 34 | 1011.3 |
| 20260509011823 | 18 | 0 | 3.2 | 8.0 | 0.00 | 0.00 | 0.00 | 37 | 1011.3 |
| 20260509011317 | 18 | 0 | 3.2 | 14.5 | 0.00 | 0.00 | 0.00 | 38 | 1011.3 |
| 20260509010812 | 17 | 0 | 4.8 | 14.5 | 0.00 | 0.00 | 0.00 | 39 | 1011.0 |
| 20260509010305 | 17 | 0 | 3.2 | 16.1 | 0.00 | 0.00 | 0.00 | 38 | 1011.2 |
| 20260509005803 | 17 | 0 | 3.2 | 9.7 | 0.00 | 0.00 | 0.00 | 45 | 1011.0 |
| 20260509005306 | 17 | 0 | 3.2 | 8.0 | 0.00 | 0.00 | 0.00 | 44 | 1010.8 |
| 20260509004804 | 17 | 0 | 4.8 | 16.1 | 0.00 | 0.00 | 0.00 | 44 | 1010.8 |
| 20260509004307 | 18 | 0 | 6.4 | 16.1 | 0.00 | 0.00 | 0.00 | 42 | 1010.7 |
| 20260509003308 | 18 | 0 | 4.8 | 19.3 | 0.00 | 0.00 | 0.00 | 37 | 1010.7 |
| 20260509002804 | 19 | 0 | 1.6 | 6.4 | 0.00 | 0.00 | 0.00 | 39 | 1010.5 |
| 20260509002306 | 19 | 0 | 1.6 | 4.8 | 0.00 | 0.00 | 0.00 | 38 | 1010.3 |
| 20260509001303 | 20 | 329 | 3.2 | 8.0 | 0.00 | 0.00 | 0.00 | 35 | 1010.3 |
| 20260509000304 | 20 | 209 | 0.0 | 1.6 | 0.00 | 0.00 | 0.00 | 36 | 1010.4 |
| 20260508235803 | 20 | 0 | 0.0 | 0.0 | 0.00 | 0.00 | 0.00 | 35 | 1010.3 |
| 20260508235306 | 20 | 0 | 0.0 | 3.2 | 0.00 | 0.00 | 0.00 | 37 | 1010.4 |
| 20260508234803 | 20 | 0 | 0.0 | 4.8 | 0.00 | 0.00 | 0.00 | 35 | 1010.4 |
| 20260508234302 | 20 | 0 | 1.6 | 4.8 | 0.00 | 0.00 | 0.00 | 34 | 1010.4 |